If you wish to contribute or participate in the discussions about articles you are invited to join SKYbrary as a registered user

 Actions

Wakkanai Airport

From SKYbrary Wiki

RJCW
Airport
ICAO: RJCW – IATA: WKJ
Summary
Name Wakkanai Airport
Region Asia and Pacific
Territory Japan JP.gif
Location Wakkanai, Hokkaidō
Serving Wakkanai
Elevation 8.23 m
27 ft8.23 m
Coordinates 45° 23' 58.40" N, 141° 47' 50.84" E
Runways
Designator Length Width Surface ROPS
8/26 1999 m6,558.399 ft
46 m150.919 ft
ASP yes/yes


METAR
Observation RJCW 210700Z 29014KT 9999 FEW020 M04/M11 Q1030
Station Wakkanai Airport
Date/Time 21 February 2020 07:00:00
Wind direction 290°
Wind speed 14 kts
Lowest cloud amount few clouds
Temperature
Dew point
Humidity 58%
QNH 1030 hPa
Weather condition n/a

Wakkanai Airport is an airport located 10 km5.4 nm
10,000 m
32,808.399 ft
east southeast of Wakkanai, Hokkaidō, Japan.

Climatology

Humid continental climate (Köppen climate classification Dfb)

Maps

Terrain

Loading map...

Airport Layout

Loading map...


Accidents & Serious Incidents at or in vicinity of RJCW

None on SKYbrary